TimePST,TemperatureF,Dew PointF,Humidity,Sea Level PressureIn,VisibilityMPH,Wind Direction,Wind SpeedMPH,Gust SpeedMPH,PrecipitationIn,Events,Conditions,WindDirDegrees,DateUTC
12:53 AM,25.0,21.0,85,30.46,10.0,SE,4.6,-,N/A,,Clear,140,2013-01-13 08:53:00
1:53 AM,27.0,21.9,81,30.45,10.0,SE,5.8,-,N/A,,Overcast,130,2013-01-13 09:53:00
2:53 AM,26.1,21.9,84,30.46,10.0,SE,4.6,-,N/A,,Mostly Cloudy,140,2013-01-13 10:53:00
3:53 AM,28.0,21.9,78,30.45,10.0,ESE,4.6,-,N/A,,Overcast,120,2013-01-13 11:53:00
4:53 AM,27.0,21.9,81,30.45,9.0,Calm,Calm,-,N/A,,Partly Cloudy,0,2013-01-13 12:53:00
5:53 AM,25.0,21.0,85,30.46,9.0,Calm,Calm,-,N/A,,Clear,0,2013-01-13 13:53:00
6:53 AM,24.8,19.4,80,30.47,8.0,SE,4.6,-,N/A,,Scattered Clouds,140,2013-01-13 14:53:00
7:53 AM,24.1,19.0,81,30.49,7.0,Calm,Calm,-,N/A,,Scattered Clouds,0,2013-01-13 15:53:00
8:53 AM,26.1,21.9,84,30.49,10.0,SE,3.5,-,N/A,,Scattered Clouds,140,2013-01-13 16:53:00
9:53 AM,28.0,21.9,78,30.49,10.0,Calm,Calm,-,N/A,,Clear,0,2013-01-13 17:53:00
10:53 AM,30.9,21.9,69,30.50,10.0,SE,3.5,-,N/A,,Scattered Clouds,140,2013-01-13 18:53:00
11:53 AM,34.0,24.1,67,30.47,10.0,Calm,Calm,-,N/A,,Scattered Clouds,0,2013-01-13 19:53:00
12:53 PM,36.0,25.0,64,30.46,10.0,Calm,Calm,-,N/A,,Mostly Cloudy,0,2013-01-13 20:53:00
1:53 PM,37.9,24.1,57,30.46,10.0,Calm,Calm,-,N/A,,Overcast,0,2013-01-13 21:53:00
2:53 PM,37.9,21.0,51,30.46,10.0,Calm,Calm,-,N/A,,Mostly Cloudy,0,2013-01-13 22:53:00
3:53 PM,37.0,21.0,52,30.46,10.0,Calm,Calm,-,N/A,,Scattered Clouds,0,2013-01-13 23:53:00
4:53 PM,36.0,23.0,59,30.47,10.0,Calm,Calm,-,N/A,,Scattered Clouds,0,2013-01-14 00:53:00
5:53 PM,34.0,24.1,67,30.48,10.0,Calm,Calm,-,N/A,,Partly Cloudy,0,2013-01-14 01:53:00
6:53 PM,30.0,23.0,75,30.47,10.0,SSE,4.6,-,N/A,,Partly Cloudy,150,2013-01-14 02:53:00
7:53 PM,32.0,23.0,69,30.49,10.0,Calm,Calm,-,N/A,,Mostly Cloudy,0,2013-01-14 03:53:00
8:53 PM,30.0,23.0,75,30.49,10.0,Calm,Calm,-,N/A,,Scattered Clouds,0,2013-01-14 04:53:00
9:53 PM,30.9,24.1,76,30.50,10.0,SE,3.5,-,N/A,,Overcast,140,2013-01-14 05:53:00
10:53 PM,30.0,23.0,75,30.51,10.0,SSE,4.6,-,N/A,,Overcast,150,2013-01-14 06:53:00
11:53 PM,30.0,24.1,79,30.48,10.0,SE,4.6,-,N/A,,Overcast,140,2013-01-14 07:53:00